Location: Key Biscayne
(25.6930°N, 80.1630°W)
Time: 04:59:50
(UTC-04:00)

Vanguard 2 - All Passes

Search period start: 16 July 2018 00:00
Search period end: 26 July 2018 00:00
Orbit: 553 x 2939 km, 32.9° (Epoch: 15 July)

Date Brightness Start Highest point End Pass type
(mag) Time Alt. Az. Time Alt. Az. Time Alt. Az.
16 Jul - 00:24:27 10° WNW 00:42:20 72° NNE 00:54:52 10° E visible
16 Jul - 02:39:02 10° WNW 02:54:22 69° SSW 03:03:44 10° SE visible
16 Jul - 04:55:28 10° W 05:02:53 20° SW 05:08:24 10° S visible
16 Jul - 16:03:40 10° SSE 16:09:57 16° SE 16:17:33 10° E daylight
16 Jul - 18:06:57 10° SW 18:19:25 54° SE 18:36:21 10° ENE daylight
16 Jul - 20:16:08 10° WSW 20:31:57 84° NNW 20:49:57 10° ENE visible
16 Jul - 22:28:50 10° W 22:46:42 67° N 23:02:16 10° E visible
17 Jul - 00:43:08 10° WNW 01:00:58 80° NNE 01:13:12 10° ESE visible
17 Jul - 02:57:44 10° WNW 03:12:18 54° SW 03:21:24 10° SE visible
17 Jul - 05:16:58 10° WSW 05:20:19 12° SW 05:23:16 10° SSW visible
17 Jul - 16:19:11 10° S 16:27:31 24° SE 16:38:32 10° E daylight
17 Jul - 18:24:34 10° SW 18:37:25 67° SSE 18:55:03 10° ENE daylight
17 Jul - 20:34:34 10° W 20:50:36 76° NNW 21:08:27 10° ENE visible
17 Jul - 22:47:37 10° WNW 23:05:35 68° N 23:20:51 10° E visible
18 Jul - 01:01:44 10° WNW 01:19:27 89° NNE 01:31:27 10° ESE visible
18 Jul - 03:16:39 10° WNW 03:30:02 41° SW 03:38:45 10° SSE visible
18 Jul - 16:35:41 10° SSW 16:45:05 33° SE 16:58:21 10° E daylight
18 Jul - 18:42:25 10° WSW 18:55:36 79° SSE 19:13:39 10° ENE daylight
18 Jul - 20:53:09 10° W 21:09:23 71° N 21:27:01 10° ENE visible
18 Jul - 23:06:20 10° WNW 23:24:26 71° N 23:39:25 10° E visible
19 Jul - 01:20:19 10° WNW 01:37:47 79° SSW 01:49:29 10° ESE visible
19 Jul - 03:35:56 10° W 03:47:38 30° SW 03:55:44 10° SSE visible
19 Jul - 16:52:44 10° SSW 17:02:44 44° SE 17:17:33 10° ENE daylight
19 Jul - 19:00:31 10° WSW 19:13:57 89° NNW 19:32:12 10° ENE daylight
19 Jul - 21:11:47 10° W 21:28:15 68° N 21:45:39 10° ENE visible
19 Jul - 23:24:58 10° WNW 23:43:12 76° NNE 23:57:55 10° E visible
20 Jul - 01:38:56 10° WNW 01:55:54 65° SSW 02:07:19 10° SE visible
20 Jul - 03:55:53 10° W 04:05:08 21° SW 04:12:06 10° S visible
20 Jul - 15:07:02 10° SSE 15:11:56 15° SE 15:17:57 10° E daylight
20 Jul - 17:10:08 10° SW 17:20:32 57° SE 17:36:26 10° ENE daylight
20 Jul - 19:18:47 10° WSW 19:32:29 80° NNW 19:50:45 10° ENE daylight
20 Jul - 21:30:26 10° W 21:47:09 68° N 22:04:21 10° E visible
20 Jul - 23:43:31 10° WNW 00:01:51 84° NNE 00:16:18 10° ESE visible
21 Jul - 01:57:41 10° WNW 02:13:50 52° SW 02:24:55 10° SE visible
21 Jul - 04:17:21 10° WSW 04:22:38 13° SW 04:27:09 10° SSW night (unlit)
21 Jul - 15:22:38 10° S 15:29:25 23° SE 15:38:46 10° E daylight
21 Jul - 17:27:49 10° SW 17:38:30 71° SSE 17:55:08 10° ENE daylight
21 Jul - 19:37:12 10° W 19:51:10 73° NNW 20:09:23 10° ENE daylight
21 Jul - 21:49:03 10° WNW 22:06:03 69° N 22:23:04 10° E visible
22 Jul - 00:02:03 10° WNW 00:20:19 86° SSW 00:34:31 10° ESE visible
22 Jul - 02:16:39 10° WNW 02:31:36 41° SW 02:42:11 10° SSE visible
22 Jul - 15:39:14 10° SSW 15:46:56 33° SE 15:58:25 10° E daylight
22 Jul - 17:45:44 10° WSW 17:56:42 84° SSE 18:13:44 10° ENE daylight
22 Jul - 19:55:41 10° W 20:09:58 69° N 20:28:06 10° ENE daylight
22 Jul - 22:07:37 10° WNW 22:24:53 73° NNE 22:41:43 10° E visible
23 Jul - 00:20:35 10° WNW 00:38:38 75° SSW 00:52:32 10° SE visible
23 Jul - 02:36:03 10° W 02:49:15 30° SW 02:59:03 10° S visible
23 Jul - 15:56:22 10° SSW 16:04:32 45° SE 16:17:32 10° ENE daylight
23 Jul - 18:03:50 10° WSW 18:15:03 84° NNW 18:32:20 10° ENE daylight
23 Jul - 20:14:13 10° W 20:28:48 67° N 20:46:52 10° E visible
23 Jul - 22:26:08 10° WNW 22:43:37 79° NNE 23:00:16 10° ESE visible
24 Jul - 00:39:10 10° WNW 00:56:45 62° SW 01:10:18 10° SE visible
24 Jul - 02:56:09 10° W 03:06:51 22° SW 03:15:18 10° S visible
24 Jul - 14:10:59 10° SSE 14:14:25 13° SE 14:18:32 10° ESE daylight
24 Jul - 16:13:51 10° SW 16:22:20 59° SE 16:36:21 10° ENE daylight
24 Jul - 18:22:06 10° W 18:33:36 75° NNW 18:50:59 10° ENE daylight
24 Jul - 20:32:45 10° WNW 20:47:40 67° N 21:05:42 10° E visible
24 Jul - 22:44:34 10° WNW 23:02:13 88° NNE 23:18:41 10° ESE visible
25 Jul - 00:57:55 10° WNW 01:14:44 50° SW 01:27:49 10° SSE visible
25 Jul - 03:17:48 10° WSW 03:24:28 14° SW 03:30:15 10° SSW visible
25 Jul - 14:26:31 10° S 14:31:53 21° SE 14:39:17 10° E daylight
25 Jul - 16:31:37 10° SW 16:40:19 75° SSE 16:55:00 10° ENE daylight
25 Jul - 18:40:29 10° W 18:52:15 69° N 19:09:43 10° ENE daylight
25 Jul - 20:51:14 10° WNW 21:06:30 70° N 21:24:31 10° E visible
25 Jul - 23:03:00 10° WNW 23:20:40 82° SSW 23:36:52 10° ESE visible
